INTELSAT 28 (IS-28)

Last updated on Thu Sep 10 2026 00:02:56 GMT+0000 (Coordinated Universal Time)

1 37392U 11016A 26252.46086505 -.00000245 00000+0 00000+0 0 9994 2 37392 2.0177 81.4907 0003751 97.0649 304.1567 1.00270174 54134
UTC large
Height (km)
Speed (km/s)
/
Latitude / Longitude
Inclination (degrees)
Orbital Period (minutes)
Azimuth
Elevation
Range (km)
Doppler Factor

Next 0 passes for location: London (51.5072 / 0.1276)

No passes found over London.
INTELSAT 28 (IS-28)